Location: Gorze? G�rny
(49.8500°N, 19.5000°E)
Time: 13:10:52
(UTC+00:00)

COSMOS 2455 - Pass Details

Date: 13 May 2021
Orbit: 902 x 908 km, 67.1° (Epoch: 22 June)

Event Time Altitude Azimuth Distance (km) Brightness Sun altitude
Rises 22:58:32 0° 324° (NW) 3,544 6.7 -21.4°
Reaches altitude 10° 23:01:06 10° 328° (NNW) 2,600 5.9 -21.3°
Maximum altitude 23:07:05 62° 49° (NE) 1,022 3.3 -21.2°
Enters shadow 23:12:06 15° 128° (SE) 2,256 4.6 -21.1°
